Location: Utrecht
(52.0907°N, 5.1214°E)
Time: 23:27:36
(UTC+02:00)

KKS-1 - Pass Details

Date: 03 July 2022
Orbit: 635 x 648 km, 98.2° (Epoch: 11 August)

Event Time Altitude Azimuth Distance (km) Brightness Sun altitude
Rises 00:06:31 0° 13° (NNE) 2,980 ? -12.0°
Reaches altitude 10° 00:08:45 10° 12° (NNE) 2,064 ? -12.1°
Maximum altitude 00:13:14 74° 288° (WNW) 678 ? -12.4°
Drops below altitude 10° 00:17:40 10° 203° (SSW) 2,041 ? -12.6°
Enters shadow 00:17:46 - 203° (SSW) 2,081 ? -12.6°
